Dewpoint
50 50 50 51 51 51 51 51 51 51 50 49 46 46 36 36 31 35 39 40 35 34 33 36 35 34 34 35 34 34 31 28 29 24 23 24 25 24 24 24 24 26 25 25 22 24 24 29 28 32 31 30 30 33 33 31 31 31 29 28 27 37 31 28 27 27 27 28 28 29 30 30 27 30 29 24 23 21 23 27 26 22 25 25 24 24 25
50 50 51 51 52 52 52 52 52 51 51 50 48 43 39 39 39 39 42 38 35 32 31 32 33 33 33 34 34 34 32 30 30 29 26 28 23 24 25 25 30 28 27 23 24 26 21 31 30 31 32 33 35 33 33 31 31 30 30 29 32 31 32 28 25 24 23 22 24 29 32 29 28 27 27 28 27 22 23 28 29 23 21 23 23 22 22
51 51 51 52 53 52 52 52 52 52 52 51 48 42 41 41 41 40 42 39 35 33 34 34 33 33 32 33 33 33 33 33 32 31 28 30 28 25 23 26 25 26 27 26 26 26 23 25 33 30 34 33 35 36 36 34 31 31 33 39 36 35 34 28 23 21 19 18 18 24 27 27 27 27 26 26 25 25 23 21 24 22 29 27 23 22 26
51 51 52 53 52 52 52 52 52 52 52 52 49 45 42 37 30 34 35 35 35 36 36 35 34 33 33 32 33 33 33 33 36 33 28 32 30 27 32 27 27 27 27 27 25 25 29 26 29 31 32 33 36 36 36 33 32 36 41 43 40 35 33 29 27 25 24 26 28 27 29 27 25 25 27 27 27 26 28 29 24 20 28 24 26 26 25
51 51 52 53 52 52 52 52 52 52 52 52 48 45 39 37 31 33 32 35 34 33 34 35 35 33 34 32 34 33 33 33 33 36 30 34 31 29 28 28 28 28 28 27 26 26 25 29 28 26 26 32 34 36 35 35 35 39 38 37 34 33 29 29 31 29 28 28 27 27 29 26 27 27 27 27 27 27 26 29 22 32 24 20 29 32 27
52 52 52 52 52 52 52 52 52 52 52 52 44 37 39 30 34 36 37 33 31 33 32 35 36 35 34 34 35 31 32 32 32 34 36 35 33 30 31 31 32 32 30 30 27 28 27 27 26 31 31 31 34 31 34 33 36 38 33 33 32 30 28 29 29 27 28 28 28 28 28 28 28 28 28 27 27 28 26 29 29 33 22 22 28 34 28
52 52 52 52 52 52 52 52 52 52 51 51 44 37 39 37 39 36 39 35 35 35 35 36 36 33 35 36 34 32 31 30 31 33 33 34 34 34 31 32 33 33 34 32 27 27 24 25 30 28 28 31 29 32 35 35 37 35 34 32 33 31 30 29 28 28 29 28 28 29 29 28 28 28 27 28 35 39 37 33 31 27 28 30 31 34 25
52 52 52 52 53 53 53 52 52 52 51 50 45 41 37 37 39 38 41 39 37 37 36 36 34 32 36 34 34 33 31 30 31 33 34 33 33 36 34 34 34 34 34 32 28 29 28 27 26 30 29 28 30 31 32 35 39 37 33 33 33 31 29 33 30 29 27 27 29 29 28 26 27 31 37 40 44 47 44 41 35 39 29 24 23 29 29
52 52 52 53 53 53 53 53 52 52 51 47 45 42 43 42 46 44 40 37 37 38 38 36 34 33 34 32 33 32 31 31 32 32 34 35 34 34 33 34 35 35 34 33 31 31 30 30 29 30 30 28 31 31 35 36 36 35 35 33 32 32 31 31 31 27 26 29 29 26 26 29 30 36 38 39 42 48 49 46 50 48 42 40 33 27 33
52 52 52 53 53 53 53 53 53 52 51 48 48 43 45 45 49 48 43 36 38 37 38 36 36 32 35 34 34 33 32 33 33 33 35 38 37 38 37 36 36 35 33 32 31 32 31 31 32 32 32 31 31 31 31 37 35 37 35 36 33 32 30 28 29 26 26 27 30 27 30 36 36 37 37 38 39 47 48 48 48 48 49 39 36 37 53
52 52 53 53 53 52 53 52 53 52 52 48 46 45 46 45 44 45 44 36 38 37 37 36 34 36 35 35 34 34 33 34 35 34 33 36 37 39 39 37 35 33 32 33 33 34 34 34 34 35 34 33 32 31 31 31 33 34 35 35 34 33 31 29 32 25 26 27 28 28 37 26 32 38 38 40 39 40 46 46 46 47 48 50 52 52 55
52 52 52 52 52 52 52 52 53 52 51 51 50 48 48 49 48 45 41 34 36 38 37 34 35 35 35 35 35 34 34 34 34 36 35 36 36 36 36 35 35 31 34 35 36 36 36 35 34 34 34 33 32 31 31 30 30 33 35 34 34 33 32 31 31 28 25 27 31 37 29 31 38 37 38 39 40 41 40 48 46 46 47 48 49 50 51
52 52 52 52 52 52 52 52 53 53 52 52 51 47 50 51 47 44 42 38 34 36 35 35 37 36 36 36 35 35 35 35 35 37 36 36 35 36 36 35 34 34 36 35 36 36 33 31 30 30 29 29 29 30 30 29 29 31 35 35 34 33 31 31 31 31 29 28 26 28 32 42 38 45 39 39 39 40 39 46 45 45 46 48 48 49 50
51 51 52 52 52 52 52 53 53 53 53 52 50 50 51 50 46 44 42 37 36 38 38 37 37 36 36 36 36 35 36 36 36 37 36 38 37 36 37 38 37 37 37 37 36 34 30 29 27 30 31 36 36 35 34 32 30 30 32 34 34 33 33 32 29 30 23 27 23 32 40 39 39 38 40 38 38 37 39 42 46 45 46 48 49 49 49
52 52 52 52 52 52 53 53 53 53 53 52 52 51 51 50 49 46 46 42 36 39 38 35 37 37 36 36 36 37 36 36 36 37 38 39 38 38 37 36 37 37 38 36 32 35 33 31 28 28 29 30 25 28 37 34 35 34 33 35 36 33 32 34 27 28 34 24 26 28 34 31 36 39 39 39 39 40 42 42 47 46 47 48 49 50 47
52 52 52 52 52 53 53 53 53 53 53 52 52 51 51 51 51 49 46 42 39 33 36 38 39 38 37 37 38 37 36 36 37 37 36 35 36 36 37 38 38 38 37 37 36 34 33 30 28 28 27 28 31 31 30 36 34 36 38 36 35 34 34 34 31 30 28 27 25 25 29 33 37 38 40 41 43 44 45 45 42 47 49 48 49 48 45
52 52 52 52 53 53 53 53 53 53 53 53 51 51 50 53 50 49 46 44 41 36 40 40 39 39 40 39 38 38 39 37 38 34 33 34 35 36 37 38 38 38 37 37 37 33 31 30 31 31 31 33 30 29 33 33 32 33 37 36 34 33 34 34 31 30 30 28 26 25 33 30 37 41 43 43 44 46 43 40 39 46 49 49 49 47 45
52 52 52 53 53 53 53 53 53 53 53 53 52 50 50 53 52 50 47 44 40 39 42 42 40 40 38 40 38 38 39 40 41 40 37 37 36 35 36 38 36 38 38 34 36 31 30 31 28 29 28 34 34 34 28 33 31 32 33 34 33 34 35 35 31 30 32 31 29 35 35 39 41 43 45 45 47 47 38 34 41 49 49 50 49 48 46
52 52 53 53 53 53 53 53 53 53 53 53 52 51 51 52 52 51 48 45 43 37 41 44 43 41 41 41 40 40 39 39 41 37 35 34 33 37 38 38 39 33 36 33 34 32 31 31 35 32 30 31 34 29 34 31 30 35 36 33 34 35 36 35 36 32 32 32 28 31 36 39 43 44 46 46 44 38 37 45 50 50 49 50 50 48 48
52 52 53 53 53 53 53 53 53 53 53 53 52 49 50 52 53 51 47 43 44 42 43 43 43 41 42 40 38 39 40 39 41 38 36 33 37 38 35 32 35 36 34 34 31 34 32 30 31 33 31 31 32 36 33 33 36 34 33 36 34 33 33 31 32 34 33 33 33 33 28 37 44 43 44 44 39 39 44 47 46 47 47 48 50 49 49
52 52 53 53 53 53 53 53 53 53 53 53 52 50 49 52 52 52 51 48 44 40 40 44 44 43 43 42 42 41 40 39 38 36 37 37 38 38 30 30 32 36 34 35 30 32 34 31 33 32 34 32 34 35 30 31 34 38 38 36 35 38 32 31 34 35 31 30 29 29 37 41 45 44 37 42 43 46 45 44 44 44 46 46 49 49 50
52 52 52 53 53 53 53 53 53 53 53 52 52 50 47 50 52 52 52 51 46 43 43 44 45 45 45 45 44 43 42 42 42 41 38 36 37 37 36 37 36 36 38 40 36 35 36 36 37 33 31 33 37 32 34 30 29 35 39 39 30 38 35 38 33 38 34 34 36 41 42 43 44 46 45 46 45 44 45 45 44 44 44 47 46 46 49
52 52 52 53 53 53 53 53 53 53 52 53 52 50 47 47 48 53 52 47 49 49 49 46 44 45 46 47 49 47 46 44 43 41 40 38 36 37 37 35 36 40 40 41 36 35 35 36 34 37 34 35 32 32 34 34 31 35 33 38 39 40 41 41 40 35 37 42 43 43 39 40 42 46 48 45 44 42 45 45 44 45 46 47 46 47 47
52 52 52 52 53 53 53 52 52 52 53 52 53 50 49 49 48 49 49 48 45 40 40 39 38 36 37 38 40 48 49 47 46 43 42 41 37 37 38 41 41 40 39 40 42 39 37 37 36 38 32 36 38 32 30 30 32 37 35 34 37 40 41 40 35 36 34 34 41 38 37 38 41 44 47 47 47 45 45 45 46 46 46 46 46 47 47
52 52 52 52 52 52 52 52 52 52 52 52 52 53 52 49 49 49 46 42 42 39 35 38 38 39 40 41 41 41 45 47 48 45 42 41 40 38 37 39 43 37 38 39 43 40 39 35 36 37 33 39 39 31 38 34 33 38 32 34 36 36 41 38 35 35 35 33 35 37 37 38 41 47 46 45 45 45 44 45 45 46 47 46 47 48 47
51 52 52 52 52 52 52 52 52 52 52 53 53 49 49 48 49 50 49 48 46 44 37 34 36 41 43 42 42 42 43 46 45 44 42 42 42 41 41 42 40 41 40 43 40 36 34 34 37 37 35 35 41 35 34 39 38 39 36 34 38 39 40 33 36 34 34 35 35 36 37 44 45 45 45 45 45 44 44 44 44 44 44 45 46 47 48
51 52 52 52 52 52 52 52 52 53 53 53 52 48 47 47 51 50 48 47 39 32 33 33 37 39 42 41 42 43 43 43 44 44 43 42 42 44 43 42 42 42 41 39 40 36 36 36 36 35 37 38 40 39 39 36 37 35 35 37 39 37 35 38 35 32 31 32 34 36 33 34 38 39 41 42 43 44 43 43 43 42 43 45 45 45 46
52 52 52 52 52 52 52 52 52 53 52 53 52 50 50 49 50 51 50 48 41 34 34 35 37 40 42 42 43 42 43 43 42 42 42 42 42 43 43 42 43 43 43 40 37 38 37 35 35 38 40 40 38 36 40 40 40 36 36 37 39 37 37 37 34 33 32 35 36 37 38 37 37 39 40 43 44 44 43 43 43 43 43 45 45 45 46
52 52 52 52 52 52 52 52 52 53 52 52 49 49 49 50 51 52 52 51 48 45 42 42 42 38 37 39 40 43 44 41 41 44 46 45 45 45 45 46 46 47 46 45 42 40 39 39 41 38 39 41 40 36 37 33 33 32 35 39 39 39 40 40 40 39 38 38 38 39 39 38 38 39 40 40 43 44 43 44 45 44 44 45 46 45 45
52 52 52 52 52 52 52 52 52 52 52 49 49 49 46 46 48 49 51 52 50 46 40 37 33 36 42 44 44 44 45 45 42 43 44 45 48 49 49 48 46 45 46 44 43 38 40 40 41 44 45 46 39 38 35 35 33 35 39 39 40 40 40 41 42 40 39 40 40 40 40 40 40 40 40 40 41 44 43 44 45 45 46 46 46 46 46
52 52 52 52 52 52 52 52 53 52 51 47 48 45 36 35 40 52 52 52 50 47 43 41 38 41 38 45 45 44 47 47 46 46 46 47 47 47 48 48 46 47 43 42 42 41 42 38 40 41 45 45 42 37 34 34 32 34 37 40 40 40 40 40 41 42 42 41 42 42 41 40 41 40 41 41 41 42 43 45 47 48 48 48 48 48 47
52 52 52 52 52 52 52 52 52 52 48 47 43 41 40 39 42 49 53 51 48 46 41 35 34 33 34 41 45 46 49 48 49 47 45 47 46 48 46 47 43 47 45 41 42 40 39 41 41 40 40 41 42 38 37 34 32 34 39 39 40 41 41 41 40 40 40 41 41 40 39 39 39 39 39 41 41 42 43 44 44 45 47 48 48 49 50
52 52 52 52 52 52 52 53 53 52 50 50 50 50 50 51 51 52 52 48 46 44 40 34 32 33 34 36 40 45 48 43 42 40 39 43 43 44 43 45 45 45 47 41 37 37 40 41 41 39 41 44 39 38 35 34 35 39 40 40 40 41 41 41 41 40 41 41 41 40 39 39 39 40 40 41 42 43 44 45 45 45 46 46 46 46 45
52 52 51 52 52 52 52 52 52 52 50 47 45 45 47 51 51 50 49 46 42 42 39 37 35 33 34 39 39 42 47 40 39 39 36 43 44 40 39 42 42 39 40 39 39 40 41 41 39 39 41 39 41 37 32 35 39 39 40 41 41 41 41 40 40 40 40 40 41 41 41 40 40 40 40 41 41 43 44 45 46 45 44 44 44 45 45
52 51 52 52 52 53 53 52 47 48 45 45 45 46 48 51 50 51 50 45 38 37 36 35 35 33 34 34 33 38 45 42 38 42 37 35 44 38 40 36 38 36 36 42 35 37 37 38 41 37 34 39 37 33 35 38 39 40 40 41 41 41 40 39 39 40 41 40 40 40 40 40 39 39 39 40 41 42 42 44 45 45 44 45 44 44 44
51 52 52 53 53 53 50 50 47 47 45 46 47 51 53 53 54 48 48 46 45 38 35 35 37 35 34 31 33 39 49 43 42 41 40 41 40 43 41 36 32 36 42 37 33 36 35 40 38 32 38 34 33 35 37 39 39 39 40 41 42 42 41 41 41 41 40 40 40 41 40 40 39 39 40 40 41 41 42 43 44 45 45 44 44 44 44
52 53 53 53 49 47 44 46 51 48 46 45 50 53 52 53 52 51 49 46 46 46 40 35 35 34 36 35 36 39 44 36 39 38 39 38 38 43 41 34 32 38 36 33 36 36 38 44 36 31 32 32 35 40 40 41 40 40 41 42 43 43 42 42 42 42 40 39 40 39 39 39 39 39 39 40 40 41 42 42 43 44 45 44 45 45 44
52 52 48 47 46 44 46 47 48 48 54 53 51 49 46 46 41 42 43 40 43 47 42 39 36 38 40 37 35 39 42 37 38 36 35 40 37 36 42 38 38 39 29 30 33 42 41 38 33 31 33 37 39 40 40 41 42 43 43 43 43 43 43 43 42 41 39 38 39 39 40 39 39 39 39 39 40 41 41 43 44 44 46 47 46 46 45
51 49 46 45 43 44 46 49 51 53 50 51 50 48 45 44 40 37 41 41 44 42 43 39 36 36 38 37 38 43 41 38 37 37 34 39 38 34 39 32 37 36 26 28 33 41 32 32 33 30 31 36 37 38 40 42 42 43 44 43 44 43 44 42 42 41 40 40 40 41 41 40 40 40 40 40 40 41 41 43 45 46 48 48 47 46 45
50 48 46 45 45 47 50 51 53 51 51 48 48 46 43 44 38 35 39 37 36 41 42 36 38 39 41 39 37 38 46 39 35 33 32 35 41 33 37 34 33 32 22 20 28 41 31 27 31 28 27 33 36 39 40 41 41 42 42 43 43 43 43 43 43 43 43 42 42 42 42 41 41 41 40 41 40 40 41 43 45 49 49 48 48 46 45
49 49 47 45 47 46 47 48 48 48 48 47 47 46 39 32 39 40 39 33 31 35 42 39 41 40 43 42 40 37 43 48 42 40 36 35 40 41 31 27 38 30 22 20 34 38 33 30 30 29 30 35 38 39 40 41 41 42 42 43 45 44 44 43 42 43 42 42 42 42 42 42 42 41 41 40 40 41 41 43 44 46 49 47 47 48 47
49 47 48 47 47 46 46 48 48 47 49 47 40 33 32 35 38 35 37 32 31 37 39 41 39 37 39 44 42 42 42 44 45 44 37 34 42 35 31 36 37 25 22 27 37 30 29 28 31 31 34 37 39 40 40 39 40 41 40 42 44 44 44 42 42 42 42 42 42 42 42 42 42 42 42 41 41 42 42 43 43 44 47 50 49 47 47
50 49 47 45 47 46 46 38 44 39 29 27 25 25 28 28 31 32 33 39 41 38 39 44 44 44 47 45 43 45 43 47 43 40 38 34 39 39 33 30 26 22 25 37 28 22 26 30 31 33 37 39 40 39 39 39 39 39 40 43 43 43 43 42 41 41 42 42 42 42 42 42 41 41 41 41 40 41 42 44 44 44 45 48 50 49 48
50 51 48 48 45 48 44 32 42 43 29 25 24 23 27 28 30 32 30 31 34 38 39 36 39 39 38 44 41 43 44 45 45 42 40 41 39 36 32 29 27 31 38 29 27 25 30 33 35 38 39 40 40 39 39 40 39 38 40 42 42 43 43 42 41 41 41 42 41 42 42 42 42 41 41 42 42 41 41 41 43 44 45 45 47 48 51
48 40 33 33 30 36 28 23 28 24 23 25 31 28 30 28 30 29 30 34 38 34 37 39 40 40 41 43 43 43 42 41 43 39 34 39 36 36 33 30 35 33 28 26 28 30 33 33 39 40 39 39 39 40 40 39 38 38 39 41 41 42 42 42 41 41 41 41 41 41 41 42 42 42 41 41 42 42 41 41 42 43 43 43 44 45 48
44 37 29 27 24 25 25 23 25 24 29 33 30 32 30 31 32 33 35 39 35 35 36 36 42 43 42 43 39 37 41 40 38 37 39 35 31 31 36 38 34 30 30 30 30 30 31 33 38 39 39 40 40 40 40 38 38 39 38 39 41 42 42 42 42 41 42 42 41 41 41 41 41 42 41 42 42 42 42 42 42 42 42 42 43 45 46
37 38 30 27 25 26 30 25 27 30 31 34 35 35 33 33 35 34 35 38 36 37 38 40 39 44 40 41 40 36 41 41 37 37 35 30 29 33 38 31 27 29 28 28 29 31 33 37 40 40 40 41 41 40 39 38 38 38 38 40 42 41 42 42 42 42 42 42 42 41 41 41 41 41 42 42 41 42 42 42 42 42 42 42 43 44 45
33 34 29 26 24 26 25 28 35 35 37 36 35 36 36 38 35 33 36 39 39 39 38 40 35 35 34 36 38 33 35 36 32 31 37 34 35 32 27 29 29 32 33 31 31 35 36 38 39 40 41 43 41 40 38 37 37 38 38 38 39 41 42 42 42 43 43 42 42 42 41 41 41 41 41 42 41 42 42 42 42 42 42 42 42 43 43
36 29 28 25 31 30 30 36 33 30 33 35 37 36 36 34 36 36 37 40 39 38 38 36 39 35 30 36 34 34 32 33 30 28 33 30 28 25 29 27 29 28 33 35 34 36 37 39 43 43 42 41 41 41 39 38 38 39 37 38 39 40 42 42 42 43 42 42 42 42 42 43 41 41 41 41 41 41 42 42 41 41 42 42 41 42 42
33 31 32 28 30 33 35 34 31 30 31 32 33 33 36 36 36 36 41 40 40 40 40 41 39 34 31 34 27 29 30 33 34 32 29 28 29 30 27 25 30 30 31 33 35 37 39 41 43 42 42 41 43 42 39 37 40 40 37 39 39 39 40 41 42 42 42 42 43 43 42 43 42 41 41 42 42 42 42 41 41 41 41 42 42 41 42
33 28 30 35 31 31 32 30 30 29 30 30 32 34 35 35 36 35 42 39 39 37 36 32 30 30 28 28 27 26 27 34 34 29 27 28 30 29 23 24 28 32 35 37 38 39 40 41 43 42 42 41 42 42 39 38 39 38 37 38 39 39 39 38 38 39 41 43 43 45 42 42 43 43 42 42 42 42 41 42 42 42 41 42 42 42 41
29 30 32 35 38 36 36 34 35 31 30 31 33 35 36 34 39 40 43 40 38 30 30 34 32 29 27 26 29 31 34 31 29 30 29 30 34 30 28 29 32 36 38 38 38 39 43 44 43 45 43 43 44 41 39 39 38 36 36 36 36 38 39 38 38 37 37 40 42 43 42 43 44 43 43 42 41 41 41 41 42 42 42 42 42 42 42